Home   Weather   Jersey City   Past weeks
Flag for USA

Past Weather in Jersey City, New Jersey, USA — Yesterday and Last 2 Weeks

Now
75 °F

Mostly cloudy.


Feels Like: 76 °F
Forecast: 81 / 71 °F
Wind: 5 mph from Southeast

Location: Newark International Airport

Current Time: Jun 25, 2019 at 3:50:52 am

Latest Report: Jun 25, 2019 at 2:51 am


Visibility: 10 mi

Pressure: 29.81 "Hg

Humidity: 76%

Dew Point: 67 °F

Location of Jersey CityLocation

Past Weather in Jersey City — Graph

°F

Jersey City Temperature Yesterday

Maximum temperature yesterday: 87 °F (at 1:51 pm)
Minimum temperature yesterday: 64 °F (at 5:51 am)
Average temperature yesterday: 78 °F

High & Low Weather Summary for the Past Weeks

 TemperatureHumidityPressure
High87 °F (Jun 24, 1:51 pm)100% (Jun 10, 2:51 pm)30.21 "Hg (Jun 10, 2:51 pm)
Low56 °F (Jun 15, 4:51 am)27% (Jun 22, 5:51 pm)29.44 "Hg (Jun 21, 3:51 am)
Average71 °F70%29.87 "Hg
* Reported Jun 10 1:51 am — Jun 25 1:51 am, Jersey City. Weather by CustomWeather, © 2019

Note: Actual official high and low records may vary slightly from our data, if they occured in-between our weather recording intervals... More about our weather records

Advertising

Jersey City Weather History for the Previous 24 Hours

Scroll right to see more
 ConditionsComfort  
Time TempWeatherWind HumidityBarometerVisibility
1:51 am
Tue, Jun 25
75 °FMostly cloudy.3 mph74%29.81 "Hg10 mi
12:51 am76 °FMostly cloudy.6 mph67%29.82 "Hg10 mi
11:51 pm
Mon, Jun 24
77 °FPassing clouds.5 mph62%29.82 "Hg10 mi
10:51 pm78 °FPassing clouds.8 mph62%29.82 "Hg10 mi
9:51 pm78 °FPassing clouds.6 mph66%29.82 "Hg10 mi
8:51 pm80 °FPassing clouds.7 mph56%29.81 "Hg10 mi
7:51 pm80 °FPartly sunny.5 mph54%29.82 "Hg10 mi
6:51 pm82 °FPartly sunny.7 mph49%29.82 "Hg10 mi
5:51 pm83 °FPartly sunny.6 mph43%29.83 "Hg10 mi
4:51 pm86 °FPartly sunny.7 mph32%29.84 "Hg10 mi
3:51 pm85 °FPartly sunny.12 mph32%29.84 "Hg10 mi
2:51 pm85 °FPartly sunny.13 mph34%29.85 "Hg10 mi
1:51 pm87 °FBroken clouds.12 mph30%29.85 "Hg10 mi
12:51 pm84 °FBroken clouds.6 mph37%29.86 "Hg10 mi
11:51 am85 °FPartly sunny.6 mph34%29.87 "Hg10 mi
10:51 am84 °FPartly sunny.5 mph36%29.88 "Hg10 mi
9:51 am81 °FPartly sunny.3 mph38%29.88 "Hg10 mi
8:51 am78 °FPartly sunny.6 mph43%29.89 "Hg10 mi
7:51 am73 °FPassing clouds.No wind55%29.89 "Hg10 mi
6:51 am68 °FScattered clouds.7 mph65%29.89 "Hg10 mi
5:51 am64 °FPassing clouds.No wind73%29.87 "Hg10 mi
4:51 am66 °FPassing clouds.5 mph68%29.88 "Hg10 mi
3:51 am68 °FPassing clouds.No wind63%29.87 "Hg10 mi
Weather by CustomWeather, © 2019

See weather overview